Location: Kissing
(48.3027°N, 10.9775°E)
Time: 00:18:40
(UTC+00:00)

Daily predictions for brighter satellites

Satellite Brightness Start Highest point End
(mag) Time Altitude Azimuth Time Altitude Azimuth Time Altitude Azimuth
STARLINK-1268 3.5 00:04:28 41° ESE 00:04:28 41° ESE 00:06:58 10° ENE
STARLINK-1301 3.6 00:03:56 46° SSE 00:04:21 48° SE 00:08:05 10° ENE
STARLINK-1303 3.6 00:05:53 46° SSE 00:06:12 47° SE 00:09:50 10° ENE
Cosmos 1400 Rocket 3.6 00:02:53 10° N 00:06:55 48° ENE 00:09:10 23° SE
Cosmos 1570 Rocket 4.0 00:04:53 33° SSW 00:07:21 84° ESE 00:12:40 10° NNE
STARLINK-66 2.8 00:07:08 68° S 00:07:22 73° SSE 00:10:34 10° ENE
Cosmos 1709 Rocket 3.9 00:05:05 30° S 00:08:23 88° W 00:14:37 10° N
Cosmos 2227 Rocket 3.3 00:03:39 10° NW 00:08:28 29° WSW 00:10:10 25° SW
Cosmos 1763 Rocket 3.7 00:05:57 28° SW 00:08:32 61° WNW 00:13:34 10° NNE
STARLINK-1316 3.2 00:09:24 48° SE 00:09:24 48° SE 00:12:10 10° ENE
STARLINK-1312 3.5 00:09:12 47° S 00:09:41 50° SE 00:13:21 10° ENE
STARLINK-1257 3.2 00:10:14 50° SE 00:10:14 50° SE 00:13:04 10° ENE
STARLINK-1256 3.1 00:11:11 51° SE 00:11:11 51° SE 00:14:01 10° ENE
STARLINK-58 3.7 00:11:42 36° ESE 00:11:42 36° ESE 00:14:17 10° ENE
STARLINK-1213 3.1 00:12:02 52° SE 00:12:02 52° SE 00:14:55 10° ENE
STARLINK-52 4.2 00:09:33 10° WNW 00:12:39 42° NNE 00:15:44 10° E
STARLINK-1263 3.0 00:12:53 53° SE 00:12:53 53° SE 00:15:49 10° ENE
Cosmos 2084 Rocket 3.5 00:08:42 10° NW 00:13:06 61° SW 00:14:58 33° SSE
STARLINK-1259 3.0 00:13:47 55° SE 00:13:47 55° SE 00:16:45 10° ENE
STARLINK-1265 3.0 00:14:10 55° SE 00:14:10 55° SE 00:17:11 10° ENE
STARLINK-1285 3.0 00:14:38 56° SE 00:14:38 56° SE 00:17:38 10° ENE
Cosmos 2298 Rocket 4.2 00:10:34 10° NNW 00:15:54 75° ENE 00:19:50 18° SSE
SL-16 R/B 3.2 00:10:23 10° SE 00:16:20 53° ENE 00:22:19 10° N
STARLINK-1296 2.9 00:16:22 58° SSE 00:16:22 58° SSE 00:19:27 10° ENE
Cosmos 1758 Rocket 3.6 00:15:28 36° SSW 00:17:11 75° W 00:21:38 10° N
STARLINK-1260 2.9 00:17:14 59° SSE 00:17:16 59° SSE 00:20:21 10° ENE
STARLINK-1318 2.8 00:18:06 60° SSE 00:18:10 60° SSE 00:21:15 10° ENE
STARLINK-75 2.8 00:18:02 57° SW 00:18:35 79° SSE 00:21:50 10° ENE
STARLINK-1275 2.8 00:18:59 60° SSE 00:19:04 61° SSE 00:22:10 10° ENE
STARLINK-48 4.2 00:19:05 33° SSE 00:19:24 34° SE 00:22:57 10° ENE
STARLINK-1309 2.8 00:19:50 61° SSE 00:19:57 62° SSE 00:23:03 10° ENE
STARLINK-1282 2.8 00:20:42 62° SSE 00:20:51 63° SSE 00:23:56 10° ENE
STARLINK-1283 3.6 00:20:03 38° SW 00:21:29 66° SSE 00:25:34 10° ENE
IRAS Rocket 4.2 00:18:06 24° SSE 00:21:32 85° WSW 00:27:05 10° NNW
STARLINK-1313 2.7 00:21:38 64° SSW 00:21:57 71° SSE 00:25:04 10° ENE
STARLINK-80 3.4 00:21:07 43° SSW 00:22:08 64° SSE 00:25:54 10° ENE
CZ-4 R/B 4.3 00:17:58 10° N 00:22:32 49° WNW 00:24:50 26° SW
STARLINK-1279 2.7 00:22:33 63° SSW 00:22:53 72° SSE 00:26:00 10° ENE
STARLINK-1298 2.7 00:23:16 62° S 00:23:30 66° SSE 00:26:37 10° ENE
STARLINK-1293 2.7 00:24:09 62° S 00:24:27 67° SSE 00:27:33 10° ENE
SL-16 R/B 3.6 00:22:44 17° SSE 00:26:01 28° ESE 00:30:47 10° NE
STARLINK-1255 2.7 00:25:54 61° SSW 00:26:15 69° SSE 00:29:22 10° ENE
Cosmos 2208 Rocket 4.0 00:23:37 30° SSW 00:26:22 82° WNW 00:31:46 10° NNE
STARLINK-22 2.8 00:26:16 55° SW 00:26:50 75° SSE 00:30:03 10° ENE
STARLINK-1297 3.2 00:26:32 45° SSW 00:27:25 64° SSE 00:31:00 10° ENE
STARLINK 1040 3.8 00:26:21 23° WNW 00:27:30 37° NNW 00:29:56 10° NE
STARLINK-1444 4.3 00:26:04 10° WNW 00:26:52 19° NW 00:26:52 19° NW
Cosmos 2285 Rocket 4.3 00:22:24 10° NNW 00:28:32 51° WSW 00:31:55 26° SSW
STARLINK-1311 2.5 00:28:27 65° SW 00:28:49 83° SSE 00:31:47 10° ENE
CZ-2D R/B 2.9 00:26:45 10° NNE 00:31:42 41° E 00:35:02 19° SSE
MOZ.5/SAFIR/RUBIN 5/SL-8 3.9 00:29:15 21° SSE 00:32:18 73° ENE 00:36:58 10° N
Cosmos-2242 3.3 00:28:40 10° NNW 00:32:48 52° W 00:34:23 33° SSW
USA 81 4.4 00:30:17 28° SW 00:32:56 55° W 00:38:09 10° N
Meteor 2-10 Rocket 4.2 00:28:32 10° NNW 00:33:14 37° W 00:35:15 26° SW
USA 215 3.5 00:28:06 13° SSE 00:33:45 48° SW 00:40:04 10° WNW
Cosmos 1953 Rocket 3.5 00:33:32 32° SSW 00:35:33 86° W 00:39:57 10° N
Cosmos 2221 3.7 00:31:31 10° N 00:35:37 38° ENE 00:39:28 11° SE
STARLINK-42 2.9 00:36:26 35° WSW 00:37:36 75° NNW 00:40:44 10° ENE
BREEZE-M R/B 3.1 00:31:53 10° W 00:37:41 73° N 00:40:46 10° E
STARLINK-1029 3.1 00:39:04 47° S 00:39:26 50° SSE 00:42:31 10° ENE
GP-B 3.1 00:36:04 10° N 00:40:32 78° E 00:42:59 26° S
STARLINK-34 2.7 00:40:02 53° SSW 00:40:33 67° SSE 00:43:36 10° ENE
STARLINK-60 2.8 00:37:34 10° WNW 00:40:46 83° SSW 00:43:58 10° ESE
FALCON 9 DEB 4.2 00:37:42 10° WNW 00:41:04 46° NNE 00:44:25 10° E
STARLINK-41 2.9 00:40:11 34° WSW 00:41:19 73° NNW 00:44:23 10° ENE
CZ-4C R/B 3.7 00:38:35 21° SSE 00:41:29 76° ENE 00:45:57 10° N
Cosmos 1315 Rocket 3.8 00:38:43 10° N 00:42:29 42° ENE 00:45:45 13° SE
Cosmos 1842 Rocket 4.2 00:38:14 10° N 00:42:39 55° ENE 00:46:04 16° SSE
STARLINK-1272 3.1 00:42:02 33° WSW 00:43:28 84° SSE 00:47:02 10° ENE
Cosmos 540 Rocket 3.7 00:41:07 25° SW 00:44:01 60° WNW 00:49:07 10° NNE
STARLINK-62 2.7 00:43:45 50° SW 00:44:23 71° SSE 00:47:26 10° ENE
Helios 1B rocket 3.9 00:44:44 10° N 00:48:15 27° WNW 00:50:24 18° WSW
Cosmos 2360 Rocket 4.2 00:44:38 10° SE 00:48:27 19° E 00:52:17 10° ENE
STARLINK-1307 3.2 00:46:48 28° WSW 00:48:38 87° SSE 00:52:22 10° ENE
STARLINK-1290 3.2 00:50:11 26° WSW 00:52:09 89° NNW 00:55:53 10° ENE
Cosmos 2058 4.5 00:50:48 13° SSE 00:54:01 30° E 00:57:43 10° NNE
Cosmos 1980 Rocket 2.5 00:51:50 22° SW 00:55:30 61° WNW 01:01:08 10° NNE
Cosmos 2074 Rocket 4.0 00:51:22 21° S 00:55:44 86° E 01:02:04 10° N
Meteor 1-29 4.5 00:54:05 10° N 00:56:53 25° WNW 00:58:11 19° WSW
STARLINK-1305 4.4 00:57:04 27° S 00:58:32 36° SE 01:02:20 10° ENE
STARLINK-1306 4.4 00:57:24 27° S 00:58:58 38° SE 01:02:53 10° ENE
STARLINK-1317 3.5 00:56:33 20° WSW 00:59:08 80° NNW 01:03:04 10° ENE
Cosmos 1455 4.0 00:56:49 10° NW 00:59:16 17° W 01:00:05 16° WSW
CZ-4B R/B 4.1 00:55:27 10° NNE 01:00:37 53° E 01:04:34 17° S
STARLINK-55 3.7 01:00:33 15° W 01:03:03 50° NNW 01:06:12 10° ENE
STARLINK-1274 3.3 01:00:56 21° WSW 01:03:09 75° NNW 01:06:43 10° ENE
STARLINK-1262 4.3 01:01:53 27° S 01:03:31 38° SE 01:07:23 10° ENE
STARLINK-43 4.4 01:00:59 10° W 01:04:32 43° N 01:08:05 10° ENE
OPS 8737 4.5 01:01:56 10° NW 01:05:13 78° SW 01:09:36 10° SE
STARLINK-1291 3.5 01:04:15 19° WSW 01:06:52 74° NNW 01:10:36 10° ENE
Meteor 1-11 4.4 01:03:54 22° SSW 01:07:29 63° WNW 01:13:03 10° N
STARLINK-1300 4.2 01:06:40 26° SSW 01:08:28 41° SE 01:12:23 10° ENE
ADEOS II 3.3 01:04:54 10° NNE 01:09:45 36° E 01:14:34 10° SSE
STARLINK-1264 3.5 01:07:26 17° WSW 01:10:11 71° NNW 01:13:56 10° ENE
Cosmos 2263 Rocket 2.2 01:05:23 10° NNW 01:10:55 61° WSW 01:15:58 12° S
IRS-1D 4.3 01:07:58 10° NNE 01:13:05 48° E 01:17:31 13° S
STARLINK-1295 4.1 01:11:26 25° SSW 01:13:25 45° SE 01:17:22 10° ENE
STARLINK-1267 3.6 01:10:40 16° WSW 01:13:33 68° NNW 01:17:16 10° ENE
STARLINK-29 2.8 01:10:20 10° WNW 01:13:34 86° SSW 01:16:45 10° ESE
NOSS 2-1 (C) 3.1 01:12:04 28° SSW 01:13:40 59° SE 01:17:13 10° NE
STARLINK-28 4.0 01:11:34 10° W 01:14:38 44° NNW 01:17:44 10° ENE
UNK 3.8 01:11:41 20° S 01:14:46 60° WSW 01:19:19 10° NNW
AQUA 4.0 01:10:05 10° NNE 01:14:51 68° ESE 01:18:24 18° S
SL-4 R/B 2.4 01:10:23 10° WNW 01:15:08 56° SSW 01:19:42 10° SE
STARLINK-64 3.2 01:14:12 26° SW 01:16:04 69° SSE 01:19:39 10° ENE
USA 229 DEB 3.9 01:09:34 10° NW 01:16:46 67° SW 01:24:18 10° SSE
USA 229 3.9 01:09:40 10° NW 01:16:52 67° SW 01:24:24 10° SSE
NOSS 3-1 (C) 4.1 01:10:13 10° NW 01:17:38 63° WSW 01:26:08 10° SSE
STARLINK-1287 4.0 01:16:12 24° SSW 01:18:22 48° SE 01:22:22 10° ENE
NOSS 2-1 (D) 3.0 01:16:50 27° SSW 01:18:32 68° SE 01:22:10 10° NE
NPP 3.7 01:13:22 10° NNE 01:18:48 88° ESE 01:22:54 18° SSW
ARIANE 5 R/B 4.2 01:15:13 10° NE 01:19:25 26° E 01:23:35 10° SSE
STARLINK-1207 3.7 01:17:09 14° WSW 01:20:20 64° NNW 01:24:04 10° ENE
Cosmos 2184 Rocket 4.1 01:16:26 19° SSW 01:20:56 67° WNW 01:27:06 10° N
CZ-4C R/B 3.9 01:18:18 10° W 01:23:10 31° NNW 01:28:52 10° NE
STARLINK-1266 3.8 01:20:25 13° W 01:23:44 62° NNW 01:27:28 10° ENE
BREEZE-M DEB (TANK) 1.5 01:23:14 32° WSW 01:24:01 75° SSE 01:26:59 10° ENE
Cosmos 1892 3.1 01:21:53 16° S 01:24:44 57° E 01:28:28 10° NNE
STARLINK-33 4.0 01:21:51 10° W 01:24:51 41° NNW 01:27:50 10° ENE
NOSS 3-1 (A) 4.1 01:18:22 10° NW 01:25:51 78° SW 01:34:29 10° SSE
STARLINK-1299 3.8 01:24:05 21° SW 01:26:49 63° SSE 01:31:02 10° ENE
STARLINK-1284 3.8 01:23:40 12° W 01:27:09 60° NNW 01:30:52 10° ENE
STARLINK-1373 4.5 01:23:57 10° WNW 01:27:54 52° NNE 01:31:51 10° E
STARLINK-1320 3.8 01:25:05 10° WNW 01:28:08 52° NNE 01:31:13 10° E
STARLINK-1302 3.8 01:25:46 21° SW 01:28:17 56° SSE 01:32:21 10° ENE
STARLINK-26 4.2 01:25:01 10° W 01:28:20 43° NNW 01:31:39 10° ENE
STARLINK-1322 3.8 01:25:26 10° WNW 01:28:30 52° NNE 01:31:34 10° E
BREEZE-M DEB (TANK) 1.3 01:26:11 10° WNW 01:28:34 71° N 01:31:13 10° E
STARLINK-1324 3.7 01:25:45 10° WNW 01:28:49 52° NNE 01:31:53 10° E
STARLINK-1294 3.7 01:26:02 10° WNW 01:29:08 52° NNE 01:32:13 10° E
Cosmos 1610 Rocket 4.5 01:24:10 16° S 01:29:11 83° W 01:35:27 10° N
STARLINK-1261 3.7 01:26:26 10° WNW 01:29:30 52° NNE 01:32:34 10° E
STARLINK-1325 3.7 01:26:47 10° WNW 01:29:51 53° NNE 01:32:55 10° E
Cosmos 1869 3.3 01:26:21 10° NNW 01:30:11 62° W 01:33:00 17° S
STARLINK-1333 3.7 01:27:09 10° WNW 01:30:13 53° NNE 01:33:17 10° E
STARLINK-1334 3.7 01:27:26 10° WNW 01:30:31 53° NNE 01:33:34 10° E
STARLINK-1258 3.9 01:26:59 11° W 01:30:35 58° NNW 01:34:18 10° ENE
STARLINK-1326 3.7 01:27:46 10° WNW 01:30:50 53° NNE 01:33:54 10° E
STARLINK-1323 3.7 01:28:08 10° WNW 01:31:13 53° NNE 01:34:17 10° E
STARLINK-1349 3.7 01:28:26 10° WNW 01:31:31 54° NNE 01:34:35 10° E
STARLINK-1336 3.7 01:28:46 10° WNW 01:31:50 54° NNE 01:34:55 10° E
STARLINK-1331 3.7 01:29:09 10° WNW 01:32:13 54° NNE 01:35:18 10° E
STARLINK-1390 4.4 01:28:32 10° WNW 01:32:32 54° NNE 01:36:30 10° E
STARLINK-1344 3.7 01:29:27 10° WNW 01:32:32 54° NNE 01:35:36 10° E
STARLINK-1343 3.6 01:29:49 10° WNW 01:32:54 55° NNE 01:35:58 10° E
STARLINK-1346 3.7 01:30:06 10° WNW 01:33:13 55° NNE 01:36:20 10° E
STARLINK-1273 3.8 01:30:32 20° SW 01:33:15 60° SSE 01:37:21 10° ENE
STARLINK-1328 3.6 01:30:33 10° WNW 01:33:38 55° NNE 01:36:42 10° E
STARLINK-1354 3.6 01:30:50 10° WNW 01:33:55 55° NNE 01:37:00 10° E
STARLINK-1292 3.9 01:30:21 10° W 01:34:02 56° NNW 01:37:45 10° ENE
Cosmos 2322 Rocket 2.3 01:29:42 17° SSW 01:34:07 76° ESE 01:39:45 10° NNE
STARLINK-1347 3.6 01:31:07 10° WNW 01:34:12 55° NNE 01:37:17 10° E
STARLINK-1357 3.6 01:31:33 10° WNW 01:34:38 56° NNE 01:37:43 10° E
STARLINK-1335 3.6 01:31:50 10° WNW 01:34:56 56° NNE 01:38:00 10° E
STARLINK-1327 3.6 01:32:11 10° WNW 01:35:16 56° NNE 01:38:21 10° E
STARLINK-1340 3.6 01:32:29 10° WNW 01:35:34 56° NNE 01:38:39 10° E
In-Cosmos 22 Rocket 4.2 01:31:02 14° S 01:35:53 82° E 01:41:23 10° NNE
STARLINK-1356 3.6 01:32:52 10° WNW 01:35:57 57° NNE 01:39:02 10° E
STARLINK-1345 3.6 01:33:10 10° WNW 01:36:16 57° NNE 01:39:21 10° E
STARLINK-1355 3.6 01:33:32 10° WNW 01:36:38 57° NNE 01:39:43 10° E
STARLINK-1321 3.5 01:33:53 10° WNW 01:36:58 57° NNE 01:40:03 10° E
STARLINK-1358 3.5 01:34:16 10° WNW 01:37:21 58° NNE 01:40:27 10° E
STARLINK-1332 3.5 01:34:33 10° WNW 01:37:39 58° NNE 01:40:44 10° E
STARLINK-1348 3.5 01:34:53 10° WNW 01:37:59 58° NNE 01:41:04 10° ESE
STARLINK-1288 3.7 01:35:19 19° SW 01:38:12 64° SSE 01:42:20 10° ENE
STARLINK-1330 3.5 01:35:13 10° WNW 01:38:19 58° NNE 01:41:24 10° ESE
STARLINK-61 3.8 01:35:51 20° SSW 01:38:19 50° SE 01:42:08 10° ENE
STARLINK-1365 4.3 01:34:31 10° WNW 01:38:32 57° NNE 01:42:34 10° E
STARLINK-1363 3.5 01:35:33 10° WNW 01:38:38 58° NNE 01:41:44 10° ESE
STARLINK-1337 3.5 01:35:55 10° WNW 01:39:02 59° NNE 01:42:07 10° ESE
STARLINK-1342 3.5 01:36:14 10° WNW 01:39:20 59° NNE 01:42:25 10° ESE
STARLINK-1364 3.5 01:36:34 10° WNW 01:39:41 59° NNE 01:42:46 10° ESE
STARLINK-1268 3.9 01:36:45 10° W 01:39:44 43° NNW 01:42:43 10° ENE
STARLINK-1376 3.5 01:36:55 10° WNW 01:40:01 59° NNE 01:43:06 10° ESE
STARLINK-1360 3.5 01:37:15 10° WNW 01:40:22 60° NNE 01:43:28 10° ESE
Resurs 1-4 Rocket 2.5 01:35:30 10° N 01:40:41 54° WNW 01:44:54 15° SW
STARLINK-1361 3.5 01:37:36 10° WNW 01:40:42 60° NNE 01:43:48 10° ESE
STARLINK-1289 4.1 01:37:14 10° W 01:40:55 53° NNW 01:44:37 10° ENE
STARLINK-1367 3.4 01:37:52 10° WNW 01:41:00 61° NNE 01:44:07 10° ESE
STARLINK-1366 3.4 01:38:15 10° WNW 01:41:21 61° NNE 01:44:27 10° ESE
STARLINK-1301 4.2 01:39:08 10° W 01:42:55 52° NNW 01:46:42 10° ENE
STARLINK-1308 3.6 01:40:08 17° SW 01:43:13 70° SSE 01:47:22 10° ENE
Cosmos 1076 Rocket 3.5 01:39:51 15° S 01:43:30 89° WNW 01:47:54 10° N
STARLINK-66 4.4 01:40:38 10° W 01:43:40 37° N 01:46:43 10° ENE
STARLINK-1303 4.1 01:40:44 10° W 01:44:25 51° NNW 01:48:06 10° ENE
Cosmos 1125 Rocket 4.2 01:40:01 10° NW 01:44:45 36° WSW 01:48:54 13° SSW
STARLINK-1316 4.0 01:42:01 10° W 01:45:00 42° NNW 01:48:01 10° ENE
Cosmos 2151 4.1 01:41:17 10° SSE 01:45:19 42° E 01:49:23 10° NNE
STARLINK-1257 4.0 01:42:54 10° W 01:45:54 41° NNW 01:48:55 10° ENE
STARLINK-1256 4.1 01:43:53 10° W 01:46:53 41° NNW 01:49:52 10° ENE
STARLINK-58 3.8 01:44:11 10° W 01:47:17 48° NNW 01:50:23 10° ENE
H-2A R/B 3.7 01:43:16 10° SE 01:47:23 38° ENE 01:51:34 10° N
STARLINK-1213 4.1 01:44:46 10° W 01:47:46 41° NNW 01:50:45 10° ENE
STARLINK-1312 4.2 01:44:14 10° W 01:47:55 50° NNW 01:51:37 10° ENE
STARLINK-1263 4.1 01:45:40 10° W 01:48:39 40° NNW 01:51:38 10° ENE
STARLINK-1338 4.1 01:44:43 10° WNW 01:48:41 61° NNE 01:52:39 10° E
STARLINK-52 3.0 01:45:42 10° WNW 01:48:51 53° SSW 01:51:59 10° SE
STARLINK-1259 4.1 01:46:37 10° W 01:49:36 40° NNW 01:52:35 10° ENE
STARLINK-1265 4.1 01:46:59 10° W 01:50:00 40° NNW 01:53:01 10° ENE
STARLINK-1285 4.1 01:47:30 10° W 01:50:29 40° NNW 01:53:27 10° ENE
STARLINK-1296 4.1 01:49:19 10° W 01:52:17 39° NNW 01:55:16 10° ENE
Cosmos 1408 2.7 01:49:31 12° S 01:52:56 74° E 01:56:37 10° NNE
STARLINK-1304 3.6 01:49:41 14° SW 01:53:09 78° SSE 01:57:18 10° ENE
STARLINK-1260 4.2 01:50:13 10° W 01:53:12 39° NNW 01:56:11 10° ENE
STARLINK-1318 4.2 01:51:08 10° W 01:54:06 39° NNW 01:57:05 10° ENE
STARLINK-75 4.4 01:51:53 10° WNW 01:54:55 37° N 01:57:58 10° ENE
STARLINK-1275 4.2 01:52:03 10° W 01:55:01 39° NNW 01:58:00 10° ENE
Cosmos 2154 Rocket 4.2 01:49:51 13° SSW 01:55:17 58° WNW 02:01:27 10° N
STARLINK-1309 4.2 01:52:56 10° W 01:55:54 38° NNW 01:58:52 10° ENE
GEOS 3 Rocket 3.8 01:51:43 10° SSE 01:56:43 49° SW 02:01:52 10° NW
STARLINK-1282 4.2 01:53:51 10° W 01:56:48 38° N 01:59:46 10° ENE
STARLINK-1371 4.0 01:53:00 10° WNW 01:56:57 65° NNE 02:00:53 10° ESE
STARLINK-48 3.8 01:54:00 10° WSW 01:57:53 64° NNW 02:01:45 10° ENE
STARLINK-1313 4.3 01:55:00 10° W 01:57:57 37° N 02:00:54 10° ENE
STARLINK-39 4.5 01:56:10 14° SSW 01:58:44 30° SE 02:01:58 10° ENE
STARLINK-1279 4.3 01:55:57 10° W 01:58:53 37° N 02:01:50 10° ENE
STARLINK-1278 3.7 01:55:21 12° WSW 01:59:19 88° NNW 02:03:36 10° ENE
STARLINK-1298 4.2 01:56:32 10° W 01:59:29 38° N 02:02:26 10° ENE
Cosmos 1825 2.7 01:55:51 10° S 01:59:32 58° E 02:03:15 10° NNE
Cosmos 2237 4.5 01:54:31 11° SSW 01:59:58 68° ESE 02:05:41 10° NNE
SL-16 R/B 3.4 01:55:29 13° SSW 02:00:12 31° W 02:05:38 10° NNW
STARLINK-31 4.4 01:57:45 14° SSW 02:00:23 31° SE 02:03:38 10° ENE
STARLINK-1293 4.3 01:57:28 10° W 02:00:25 37° N 02:03:23 10° ENE
STARLINK-80 4.4 01:56:50 10° W 02:00:31 46° NNW 02:04:13 10° ENE
STARLINK-1280 3.7 01:57:08 11° WSW 02:01:10 87° NNW 02:05:27 10° ENE
STARLINK-1341 3.9 01:57:23 10° WNW 02:01:21 68° NNE 02:05:18 10° ESE
SL-08 R/B 3.2 01:57:12 10° SSE 02:01:50 83° WSW 02:06:29 10° NNW
STARLINK-69 4.2 01:59:20 14° SSW 02:02:00 34° SE 02:05:18 10° ENE
STARLINK-1255 4.3 01:59:17 10° W 02:02:14 37° N 02:05:11 10° ENE
STARLINK-22 4.3 02:00:06 10° W 02:03:08 37° N 02:06:10 10° ENE
STARLINK-21 4.3 02:00:55 13° SSW 02:03:39 33° SE 02:06:57 10° ENE
IRS-P3 4.2 01:58:51 10° NNE 02:04:13 90° ESE 02:09:33 10° SSW
STARLINK-1311 4.4 02:01:33 10° WNW 02:04:17 33° N 02:07:02 10° ENE
STARLINK-1297 4.3 02:01:43 10° W 02:05:11 44° NNW 02:08:41 10° ENE
STARLINK-45 4.1 02:02:35 13° SSW 02:05:24 37° SE 02:08:47 10° ENE
Cosmos 1844 Rocket 2.8 01:59:53 10° NNW 02:05:31 85° ENE 02:11:07 10° SSE
STARLINK-1374 3.8 02:01:51 10° WNW 02:05:51 71° NNE 02:09:51 10° ESE
NOSS 2-1 (E) 3.7 02:04:58 11° WSW 02:08:03 47° NW 02:11:47 10° NNE
STARLINK-76 4.2 02:05:36 13° SSW 02:08:31 36° SE 02:11:52 10° ENE
STARLINK-70 4.1 02:05:59 13° SSW 02:08:58 39° SE 02:12:24 10° ENE
STARLINK-1286 3.7 02:05:38 10° WSW 02:09:49 85° NNW 02:14:01 10° ENE
SL-16 R/B 2.6 02:04:36 12° SW 02:09:49 54° WNW 02:15:24 10° NNE
STARLINK-1339 3.7 02:06:01 10° WNW 02:09:59 74° NNE 02:13:57 10° ESE
STARLINK-23 4.1 02:07:11 12° SSW 02:10:09 37° SE 02:13:32 10° ENE
STARLINK-32 4.1 02:08:37 12° SSW 02:11:35 38° SE 02:14:56 10° ENE
CZ-2D R/B 3.2 02:07:04 10° N 02:11:39 32° WNW 02:16:11 10° SW
Cosmos 2221 3.9 02:09:32 10° NW 02:12:58 23° W 02:16:17 10° SW
STARLINK-1281 3.7 02:08:54 10° WSW 02:13:03 84° NNW 02:17:13 10° ENE
STARLINK-40 4.1 02:10:18 12° SSW 02:13:23 39° SE 02:16:48 10° ENE
COSMOS 2428 4.3 02:09:39 10° SSE 02:14:28 29° ESE 02:19:19 10° NE
STARLINK-1377 3.7 02:10:33 10° WNW 02:14:34 78° NNE 02:18:34 10° ESE
STARLINK-44 4.0 02:11:49 12° SSW 02:14:57 40° SE 02:18:23 10° ENE
CZ-4C R/B 4.0 02:11:48 10° SSE 02:15:20 53° ENE 02:18:54 10° N
STARLINK-1029 4.0 02:12:24 10° W 02:15:26 42° NNW 02:18:29 10° ENE
STARLINK-34 4.2 02:13:25 10° W 02:16:20 37° N 02:19:14 10° ENE
Cosmos 773 Rocket 4.2 02:11:25 10° SSW 02:16:40 79° ESE 02:21:59 10° NNE
STARLINK-37 3.9 02:13:33 12° SW 02:16:46 44° SE 02:20:14 10° ENE
STARLINK-1310 3.7 02:13:53 10° WSW 02:18:02 79° NNW 02:22:12 10° ENE
FALCON 9 DEB 3.3 02:14:48 10° WNW 02:18:09 50° SW 02:21:31 10° SE
STARLINK-36 3.9 02:14:56 11° SW 02:18:11 43° SE 02:21:39 10° ENE
STARLINK-1353 3.6 02:14:53 10° WNW 02:18:54 82° NNE 02:22:56 10° ESE
STARLINK-62 4.3 02:17:19 10° W 02:20:10 36° N 02:23:01 10° ENE
STARLINK-63 3.8 02:18:10 11° SW 02:21:32 47° SE 02:25:02 10° ENE
STARLINK-35 3.8 02:19:32 10° SW 02:22:54 46° SE 02:26:20 10° ENE
STARLINK-1319 3.8 02:18:52 10° WSW 02:23:01 75° NNW 02:27:10 10° ENE
STARLINK-1375 3.6 02:19:16 10° WNW 02:23:18 86° NNE 02:27:19 10° ESE
STARLINK-51 3.8 02:21:14 10° SW 02:24:42 48° SE 02:28:11 10° ENE
STARLINK-1028 4.4 02:21:32 10° SSW 02:25:26 40° SE 02:29:20 10° ENE
Cosmos 2366 rocket 4.1 02:19:27 10° S 02:25:42 86° E 02:32:04 10° N
STARLINK-30 3.7 02:22:51 10° SW 02:26:21 49° SE 02:29:53 10° ENE
Cosmos 2278 Rocket 4.2 02:22:06 10° NNW 02:27:17 34° NE 02:32:26 10° ESE
STARLINK-1350 3.5 02:23:36 10° WNW 02:27:38 90° WNW 02:31:40 10° ESE
STARLINK-72 3.7 02:24:17 10° SW 02:27:45 50° SE 02:31:14 10° ENE
STARLINK-1277 3.8 02:23:52 10° WSW 02:28:00 72° NNW 02:32:09 10° ENE
Shenzhou-11 Module 3.0 02:26:53 10° WSW 02:28:48 20° S 02:30:43 10° SE
STARLINK-1021 4.3 02:26:29 10° SW 02:30:25 43° SE 02:34:22 10° ENE
Cosmos 1933 3.7 02:26:23 10° N 02:30:26 70° E 02:34:27 10° SSE
Cosmos 2058 4.2 02:27:18 10° SW 02:30:54 27° WNW 02:34:34 10° NNW
STARLINK-59 3.5 02:27:36 10° SW 02:31:05 55° SSE 02:34:36 10° ENE
Cosmos 2360 Rocket 2.3 02:26:10 10° SSW 02:31:47 76° WNW 02:37:28 10° NNE
STARLINK-1352 3.5 02:27:47 10° WNW 02:31:48 86° SSW 02:35:49 10° ESE
STARLINK-1010 4.3 02:28:35 10° SW 02:32:39 47° SE 02:36:45 10° ENE
STARLINK-56 3.6 02:29:18 10° SW 02:32:51 55° SSE 02:36:25 10° ENE
STARLINK-1276 3.9 02:28:53 10° WSW 02:33:01 68° NNW 02:37:09 10° ENE
Cosmos 1328 Rocket 3.7 02:29:33 10° N 02:33:59 84° ENE 02:38:20 10° S
STARLINK-73 3.6 02:30:55 10° SW 02:34:28 57° SSE 02:38:03 10° ENE
STARLINK-1019 4.2 02:31:22 10° SW 02:35:20 47° SE 02:39:20 10° ENE
STARLINK-38 3.5 02:32:32 10° SW 02:36:06 59° SSE 02:39:41 10° ENE
STARLINK-1368 3.5 02:32:28 10° WNW 02:36:30 81° SSW 02:40:32 10° ESE
STARLINK-65 3.5 02:34:09 10° SW 02:37:44 60° SSE 02:41:20 10° ENE
STARLINK-1305 4.0 02:33:51 10° WSW 02:37:58 65° NNW 02:42:07 10° ENE
STARLINK-68 3.5 02:34:48 10° SW 02:38:25 64° SSE 02:42:03 10° ENE
STARLINK-1306 4.0 02:34:30 10° WSW 02:38:39 64° NNW 02:42:51 10° ENE
STARLINK-53 3.4 02:35:51 10° SW 02:39:25 64° SSE 02:43:03 10° ENE
STARLINK-1012 4.1 02:36:18 10° SW 02:40:19 50° SE 02:44:20 10° ENE
Cosmos 1980 Rocket 4.4 02:37:21 10° WNW 02:40:44 16° NW 02:44:09 10° N
STARLINK-1369 3.5 02:36:55 10° WNW 02:40:56 77° SSW 02:44:58 10° SE
SL-24 DEB 4.4 02:37:03 10° N 02:41:35 56° W 02:46:03 10° SSW
